Terug naar catalogus

USA 363

ActiefMilitairVLEO
NORAD 59823·PAYLOAD·🇺🇸 United States

Gelanceerd May 22, 2024 vanaf Vandenberg Space Force Base

Loading…

Volgende Passages (komende 24 uur)

TLE

VerouderdSource: Mike McCants

Epoch: Aug 24, 2026, 20:42 UTC

1 59823U 24096K   26236.86251358 0.00000000  00000-0  00000-0 0    08
2 59823  70.0215 154.6070 0002995  14.0835 345.9165 14.96713079    03

Volg USA 363 in realtime met AllMySat

Download on the App Store